Regional Weather Roundup
Issued by NWS Burlington, VT

Home | Current Version | Previous Version | Text Only | Print | Product List | Glossary On
Versions: 1 2 3 4 5 6 7 8 9 10 11 12 13 14 15 16 17 18 19 20 21 22 23 24 25 26 27 28 29 30 31 32 33 34 35 36 37 38 39 40 41 42 43 44 45 46 47 48 49 50
000
ASUS41 KBTV 271410
RWRBTV
VERMONT REGIONAL WEATHER ROUNDUP
NATIONAL WEATHER SERVICE BURLINGTON VT
900 AM EST FRI FEB 27 2015

NOTE: "FAIR" INDICATES FEW OR NO CLOUDS BELOW 12,000 FEET WITH NO
SIGNIFICANT WEATHER AND/OR OBSTRUCTIONS TO VISIBILITY.

* THESE REPORTS ARE NOT UNDER NWS QUALITY CONTROL AND/OR DO NOT
  REPORT WEATHER SUCH AS PRECIPITATION AND FOG.

VTZ001>019-271500-
_____VERMONT_____


CITY           SKY/WX    TMP DP  RH WIND       PRES   REMARKS
BURLINGTON     SUNNY      3  -9  57 CALM      30.38R
MONTPELIER     SUNNY      1 -10  60 CALM      30.31R
MORRISVILLE    SUNNY     -3 -12  65 CALM      30.34R
ST. JOHNSBURY*   N/A     -3 -12  65 MISG      30.32R
LYNDONVILLE*   FAIR      -1 -14  52 CALM      30.28R
MIDDLEBURY*    FAIR       4 -10  52 CALM      30.37R
RUTLAND*       SUNNY      1 -15  46 CALM      30.33R
SPRINGFIELD    SUNNY      7  -9  48 CALM      30.34R
HIGHGATE*      FAIR       4 -11  50 S5        30.38R
NEWPORT*       FAIR      -5 -15  64 CALM      30.29S
BENNINGTON     SUNNY      8  -4  58 CALM      30.33R

_____LAKE CHAMPLAIN_____


CITY           SKY/WX    TMP DP  RH WIND       PRES   REMARKS

$$

NYZ007-026>031-035-052-083-271500-
_____NORTHERN NEW YORK_____


CITY           SKY/WX    TMP DP  RH WIND       PRES   REMARKS
PLATTSBURGH    SUNNY      9 -10  42 VRB3      30.38R
SARANAC LAKE   SUNNY     -4 -12  68 SW6       30.22R
MASSENA        SUNNY      0 -12  57 SW8       30.42R
OGDENSBURG*    FLURRIES   7  -4  61 SW3       30.40R
POTSDAM*       SUNNY      1  -9  60 SW6       30.39R
WATERTOWN      SUNNY      3  -8  60 CALM      30.41R
FT DRUM        SUNNY     -1  -9  67 S1        30.36R
ALBANY         SUNNY     11  -3  53 N9        30.41R
GLENS FALLS    SUNNY      5  -3  69 CALM      30.39R

$$
NHZ002-005-011-271500-
_____NEW HAMPSHIRE_____


CITY           SKY/WX    TMP DP  RH WIND       PRES   REMARKS
LEBANON        SUNNY      5  -9  52 CALM      30.33R
KEENE          SUNNY      9  -6  52 N6        30.33R
MT WASHINGTON  MOSUNNY   -9 -17  70 NW36        N/A  WCI -41
PLYMOUTH       FAIR      10  -5  48 W12       30.30R WCI  -4
WHITEFIELD     SUNNY      1 -10  60 CALM      30.27R

$$

_____REGIONAL QUEBEC LOCATIONS_____


CITY           SKY/WX    TMP DP  RH WIND       PRES   REMARKS
MONTREAL       SUNNY      0 -11  60 S6        30.39R
QUEBEC CITY    MOSUNNY   -6 -13  71 SW17      30.28R WCI -28
SHERBROOKE     SUNNY     -2 -11  65 VRB2      30.29R

_____REGIONAL ONTARIO LOCATIONS_____


CITY           SKY/WX    TMP DP  RH WIND       PRES   REMARKS
OTTAWA         SUNNY      0 -11  60 W5        30.38R

______KEY______
VSB  - VISIBILITY IN MILES
WCI  - WIND CHILL INDEX
HX   - HEAT INDEX
$$
NNNN


USA.gov is the U.S. government's official web portal to all federal, state and local government web resources and services.